User: anonymous   Login
Location: Hoyos del Collado
(40.3594°N, 5.2003°W)
Time: 04:06:42
(UTC+00:00)
Language:

Milstar 3 - Orbit

View from above orbital plane
View from above orbital plane
View from above satellite
View from above satellite

Ground track
Ground track

The orbit data is extracted from the following two-line orbital elements,

1 25724U 99023A   24164.46862979  .00000161  00000-0  14649-2 0  9995
2 25724  28.2356 301.0501 2131318 224.5356 116.2896  9.37488321  3397
Epoch (UTC): 12 June 2024 11:14:49
Eccentricity: 0.2131318
inclination: 28.2356°
perigee height: 1098 km
apogee height: 5147 km
right ascension of ascending node: 301.0501°
argument of perigee: 224.5356°
revolutions per day: 9.37488321
mean anomaly at epoch: 116.2896°
orbit number at epoch: 339

The dashed part of the orbit path shows where the satellite is in the earth's shadow,  

DLR